Weather History for Trinidad, CO

Change the Weather History Date:

Wednesday, December 19, 2012

  Actual Average Record
Temperature  
Mean Temperature 22 °F 31 °F  
Max Temperature 41 °F 45 °F 64 °F (1981)
Min Temperature 3 °F 17 °F -10 °F (1989)
Degree Days  
Heating Degree Days 43 34  
Month to date heating degree days 543 629  
Since 1 July heating degree days 1591 1862  
Cooling Degree Days 0 0  
Month to date cooling degree days 0 0  
Year to date cooling degree days 1175 719  
Moisture  
Dew Point 15 °F    
Average Humidity 66    
Maximum Humidity 84    
Minimum Humidity 48    
Precipitation  
Precipitation 0.00 in 0.01 in 0.17 in (2006)
Month to date precipitation 0.17 0.34  
Year to date precipitation 13.64  
Sea Level Pressure  
Sea Level Pressure 29.76 in    
Wind  
Wind Speed 13 mph (NNW)    
Max Wind Speed 29 mph    
Max Gust Speed 37 mph    
Visibility 4 miles    
Events Fog , Snow    
T = Trace of Precipitation, MM = Missing Value Source: NWS Daily Summary

Daily Weather History Graph

Daily Weather History Graph

Search for Another Location

Airport:

Trip Planner

Search our weather history database for the weather conditions in past years. The results will help you decide how hot, cold, wet, or windy it might be!

Date:

Astronomy

Dec. 19, 2012 Rise Set
Actual Time 7:06 AM MST 4:42 PM MST
Civil Twilight 6:37 AM MST 5:11 PM MST
Nautical Twilight 6:04 AM MST 5:44 PM MST
Astronomical Twilight 5:33 AM MST 6:16 PM MST
Moon 11:25 AM MST (12/19) No Moon Set
Length of Visible Light 10h 34m
Length of Day
9h 35m
Waxing Crescent, 45% of the Moon is Illuminated
Dec 19
Waxing Crescent
Dec 19
First Quarter
Dec 28
Full
Jan 4
Last Quarter
Jan 11
New

Hourly Weather History & Observations

Time (MST) Temp. Windchill Dew Point Humidity Pressure Visibility Wind Dir Wind Speed Gust Speed Precip Events Conditions
12:54 AM 39.9 °F 31.4 °F 23.0 °F 51% 29.47 in 10.0 mi South 16.1 mph - N/A   Partly Cloudy
1:54 AM 39.9 °F 31.8 °F 21.9 °F 49% 29.45 in 10.0 mi South 15.0 mph - N/A   Mostly Cloudy
2:54 AM 36.0 °F 30.3 °F 21.9 °F 57% 29.45 in 10.0 mi South 6.9 mph - N/A   Clear
3:54 AM 36.0 °F 31.1 °F 21.9 °F 57% 29.43 in 10.0 mi WNW 5.8 mph - N/A   Scattered Clouds
4:54 AM 37.9 °F - 24.1 °F 57% 29.42 in 10.0 mi Calm Calm - N/A   Clear
5:54 AM 30.9 °F 22.8 °F 21.9 °F 69% 29.46 in 10.0 mi NNE 9.2 mph - N/A   Partly Cloudy
6:54 AM 26.1 °F 17.6 °F 16.0 °F 66% 29.48 in 10.0 mi NE 8.1 mph - N/A   Clear
7:54 AM 25.0 °F 14.8 °F 17.1 °F 72% 29.55 in 10.0 mi North 10.4 mph - N/A   Clear
8:54 AM 26.1 °F 12.7 °F 18.0 °F 71% 29.59 in 10.0 mi NNW 18.4 mph 24.2 mph N/A   Overcast
8:59 AM 24.8 °F 10.7 °F 17.6 °F 74% 29.61 in 1.8 mi NNW 19.6 mph 25.3 mph 0.00 in Snow Light Snow
9:07 AM 24.8 °F 11.5 °F 17.6 °F 74% 29.63 in 0.2 mi NNW 17.3 mph 25.3 mph 0.00 in Snow Heavy Snow
9:16 AM 23.0 °F 8.7 °F 17.6 °F 80% 29.64 in 0.2 mi North 18.4 mph 24.2 mph 0.00 in Snow Heavy Snow
9:23 AM 21.2 °F 7.8 °F 17.6 °F 86% 29.65 in 0.2 mi NNW 15.0 mph 24.2 mph 0.00 in Fog , Snow Heavy Snow
9:46 AM 21.2 °F 10.1 °F 17.6 °F 86% 29.64 in 0.5 mi North 10.4 mph - 0.00 in Fog , Snow Snow
9:54 AM 21.9 °F 12.5 °F 19.0 °F 89% 29.69 in 0.5 mi NNW 8.1 mph - 0.00 in Fog , Snow Snow
10:19 AM 23.0 °F 13.9 °F 19.4 °F 86% 29.66 in 0.5 mi NNE 8.1 mph - 0.00 in Fog , Snow Snow
10:39 AM 23.0 °F 9.6 °F 17.6 °F 80% 29.69 in 1.2 mi North 16.1 mph 20.7 mph 0.00 in Snow Light Snow
10:54 AM 21.9 °F 9.8 °F 18.0 °F 85% 29.71 in 1.8 mi NNW 12.7 mph 19.6 mph 0.00 in Snow Light Snow
11:00 AM 21.2 °F 8.3 °F 17.6 °F 86% 29.69 in 0.8 mi NNW 13.8 mph - 0.00 in Snow Light Snow
11:02 AM 21.2 °F 8.9 °F 17.6 °F 86% 29.69 in 0.5 mi NNW 12.7 mph - 0.00 in Fog , Snow Snow
11:07 AM 21.2 °F 7.8 °F 17.6 °F 86% 29.69 in 0.2 mi NNW 15.0 mph - 0.00 in Fog , Snow Heavy Snow
11:26 AM 21.2 °F 8.3 °F 17.6 °F 86% 29.70 in 0.5 mi North 13.8 mph 23.0 mph 0.00 in Snow Snow
11:36 AM 21.2 °F 8.3 °F 17.6 °F 86% 29.70 in 0.8 mi NNW 13.8 mph - 0.00 in Snow Light Snow
11:46 AM 21.2 °F 5.6 °F 15.8 °F 80% 29.69 in 1.2 mi North 20.7 mph 26.5 mph 0.00 in Snow Light Snow
11:54 AM 21.9 °F 8.2 °F 17.1 °F 82% 29.72 in 1.0 mi NNW 16.1 mph 25.3 mph 0.00 in Snow Light Snow
12:03 PM 21.2 °F 6.8 °F 15.8 °F 80% 29.69 in 1.5 mi North 17.3 mph 24.2 mph 0.00 in Snow Light Snow
12:54 PM 21.9 °F 6.9 °F 16.0 °F 78% 29.73 in 1.5 mi North 19.6 mph 26.5 mph 0.00 in Snow Light Snow
1:02 PM 21.2 °F 5.2 °F 15.8 °F 80% 29.72 in 2.5 mi North 21.9 mph 26.5 mph 0.00 in Snow Light Snow
1:11 PM 21.2 °F 9.5 °F 15.8 °F 80% 29.73 in 0.8 mi North 11.5 mph 24.2 mph 0.00 in Snow Light Snow
1:24 PM 21.2 °F 5.6 °F 17.6 °F 86% 29.74 in 0.8 mi North 20.7 mph 26.5 mph 0.00 in Snow Light Snow
1:31 PM 21.2 °F 7.3 °F 15.8 °F 80% 29.75 in 1.2 mi North 16.1 mph 26.5 mph 0.00 in Snow Light Snow
1:40 PM 21.2 °F 7.8 °F 15.8 °F 80% 29.75 in 1.0 mi NNW 15.0 mph - 0.00 in Snow Light Snow
1:47 PM 21.2 °F 3.9 °F 15.8 °F 80% 29.75 in 0.8 mi North 26.5 mph 33.4 mph 0.00 in Snow Light Snow
1:54 PM 19.9 °F 2.8 °F 15.1 °F 81% 29.80 in 0.8 mi North 24.2 mph 33.4 mph 0.00 in Snow Light Snow
2:07 PM 19.4 °F 2.8 °F 15.8 °F 86% 29.78 in 1.0 mi NNW 21.9 mph 28.8 mph 0.00 in Snow Light Snow
2:46 PM 19.4 °F 3.2 °F 14.0 °F 80% 29.82 in 2.5 mi North 20.7 mph 26.5 mph 0.00 in Snow Light Snow
2:54 PM 19.9 °F 4.8 °F 15.1 °F 81% 29.88 in 1.0 mi North 18.4 mph 28.8 mph 0.00 in Snow Light Snow
3:02 PM 19.4 °F 4.1 °F 15.8 °F 86% 29.84 in 0.5 mi NNW 18.4 mph 23.0 mph 0.00 in Fog , Snow Snow
3:18 PM 19.4 °F 4.1 °F 15.8 °F 86% 29.85 in 0.8 mi North 18.4 mph - 0.00 in Snow Light Snow
3:36 PM 19.4 °F 4.5 °F 14.0 °F 80% 29.87 in 2.0 mi North 17.3 mph 24.2 mph 0.00 in Snow Light Snow
3:43 PM 19.4 °F 5.5 °F 14.0 °F 80% 29.88 in 6.0 mi North 15.0 mph 23.0 mph 0.00 in Snow Light Snow
3:54 PM 19.0 °F 2.7 °F 12.9 °F 77% 29.93 in 7.0 mi North 20.7 mph 27.6 mph 0.00 in Snow Light Snow
4:54 PM 19.0 °F 3.6 °F 12.0 °F 74% 29.98 in 10.0 mi North 18.4 mph 26.5 mph 0.00 in   Overcast
5:54 PM 19.0 °F 4.5 °F 9.0 °F 65% 30.06 in 10.0 mi NNE 16.1 mph 20.7 mph N/A   Overcast
6:54 PM 17.1 °F 7.6 °F 7.0 °F 65% 30.14 in 10.0 mi North 6.9 mph - N/A   Overcast
7:54 PM 14.0 °F 2.9 °F 5.0 °F 67% 30.21 in 10.0 mi West 8.1 mph - N/A   Partly Cloudy
8:54 PM 10.9 °F -0.8 °F 3.9 °F 73% 30.23 in 10.0 mi West 8.1 mph - N/A   Mostly Cloudy
9:54 PM 9.0 °F -5.1 °F 1.9 °F 73% 30.27 in 10.0 mi WSW 10.4 mph - N/A   Partly Cloudy
10:54 PM 6.1 °F -10.2 °F -0.9 °F 73% 30.30 in 10.0 mi WSW 12.7 mph - N/A   Clear
11:54 PM 5.0 °F -13.0 °F -0.9 °F 76% 30.32 in 10.0 mi WSW 15.0 mph - N/A   Clear